Weather in Sazanie

Russia / Penza Oblast     52°30′22″N   44°10′06″E
temp.,
°C
wind,
m/s
gust,
m/s
humid.,
%
clouds,
%
prec.,
mm/h
press.,
hPa
HPBL,
m
28 february, sun
sun2800:00−13nnw499483 0.0 1011253
03:00−15nw489446 0.0 1012189
06:00−17nw36964 0.0 101493
09:00−14nw489430 0.0 1014291
12:00−11nw469093 0.0 1015484
15:00−10nw469096 0.0 1015517
18:00−12nw2395100 0.0 101627
21:00−14n229594 0.1 101920
1 march, mon
mon100:00−16n229460 0.0 102020
03:00−17n239530 0.0 102220
06:00−18n22950 0.0 102420
09:00−15nnw22930 0.0 102693
12:00−11nw238725 0.0 1026308
15:00−9wnw359153 0.0 1026332
18:00−13wsw349646 0.0 102532
21:00−12wsw479851 0.0 1024122
2 march, tue
tue200:00−8wsw61296100 0.0 1022298
03:00−5wsw71395100 0.1 1018502
06:00−3wsw81596100 0.9 1014602
09:00−1wsw91593100 1.7 1012788
12:000w71399100 0.9 1009742
15:000wnw61298100 1.1 1007618
18:000wnw51194100 0.7 1007528
21:00−2wnw4993100 0.8 1008280
3 march, wed
wed300:00−6wnw479671 0.0 1008152
03:00−8wnw499651 0.0 1009173
06:00−6nw4119690 0.0 1009303
09:00−4nw7119191 0.1 1010760
12:00−3nw7986100 0.1 1012891
15:00−3nw71087100 0.2 1013971
18:00−5nw4118997 0.1 1014413
21:00−8wnw479054 0.1 1017133
4 march, thu
thu400:00−9wnw489517 0.0 1017147
03:00−10w349718 0.0 101866
06:00−11wsw479620 0.0 1017129
09:00−6wsw7149010 0.0 1016385
12:00−2wsw9158441 0.0 1013699
15:00−1wsw9168362 0.0 1011799
18:00−2wsw8188272 0.0 1010711
21:00−2wsw8188253 0.0 1009596